Weather History for KSPI - February, 2013

Change the Weather History Date:

Saturday, February 23, 2013

  Actual Average Record
Temperature  
Mean Temperature 22 °F 34 °F  
Max Temperature 29 °F 43 °F 70 °F (1996)
Min Temperature 15 °F 25 °F -5 °F (1889)
Degree Days  
Heating Degree Days 43 31  
Month to date heating degree days 782 796  
Since 1 July heating degree days 3745 4122  
Cooling Degree Days 0 0  
Month to date cooling degree days 0 0  
Year to date cooling degree days 0 0  
Moisture  
Dew Point 17 °F    
Average Humidity 80    
Maximum Humidity 92    
Minimum Humidity 68    
Precipitation  
Precipitation 0.00 in 0.07 in 0.84 in (1906)
Month to date precipitation 1.48 1.43  
Year to date precipitation 4.20 3.25  
Snow  
Snow 0.00 in 0.20 in 7.70 in (1963)
Month to date snowfall 6.2 4.7  
Since 1 July snowfall 10.8 17.3  
Snow Depth 3.00 in    
Sea Level Pressure  
Sea Level Pressure 30.03 in    
Wind  
Wind Speed 7 mph (WSW)    
Max Wind Speed 14 mph    
Max Gust Speed 16 mph    
Visibility 10 miles    
Events      
T = Trace of Precipitation, MM = Missing Value Source: NWS Daily Summary

Daily Weather History Graph

Daily Weather History Graph

Search for Another Location

Airport or City:

Trip Planner

Search our weather history database for the weather conditions in past years. The results will help you decide how hot, cold, wet, or windy it might be!

Date:

Astronomy

Feb. 23, 2013 Rise Set
Actual Time 6:40 AM CST 5:44 PM CST
Civil Twilight 6:12 AM CST 6:11 PM CST
Nautical Twilight 5:41 AM CST 6:43 PM CST
Astronomical Twilight 5:10 AM CST 7:14 PM CST
Moon 3:54 PM CST (2/23) 5:02 AM CST (2/23)
Length of Visible Light 11h 58m
Length of Day
11h 04m
Waxing Gibbous, 95% of the Moon is Illuminated
Feb 23
Waxing Gibbous
Feb 25
Full
Mar 4
Last Quarter
Mar 11
New
Mar 19
First Quarter

Hourly Weather History & Observations

Time (CST) Temp. Windchill Dew Point Humidity Pressure Visibility Wind Dir Wind Speed Gust Speed Precip Events Conditions
12:52 AM 25.0 °F 14.8 °F 18.0 °F 75% 30.04 in 10.0 mi West 10.4 mph - N/A   Overcast
1:52 AM 24.1 °F 13.1 °F 17.1 °F 75% 30.04 in 10.0 mi WSW 11.5 mph - N/A   Overcast
2:14 AM 24.8 °F 14.0 °F 17.6 °F 74% 30.01 in 10.0 mi WSW 11.5 mph - N/A   Overcast
2:49 AM 21.2 °F 11.7 °F 17.6 °F 86% 30.01 in 10.0 mi WSW 8.1 mph - N/A   Scattered Clouds
2:52 AM 21.9 °F 11.7 °F 18.0 °F 85% 30.03 in 10.0 mi WSW 9.2 mph - N/A   Partly Cloudy
3:52 AM 19.9 °F 11.1 °F 15.1 °F 81% 30.04 in 10.0 mi WSW 6.9 mph - N/A   Clear
4:52 AM 18.0 °F 9.8 °F 15.1 °F 88% 30.04 in 9.0 mi WSW 5.8 mph - N/A   Clear
5:52 AM 17.1 °F 10.0 °F 14.0 °F 88% 30.04 in 9.0 mi WSW 4.6 mph - N/A   Clear
6:52 AM 16.0 °F 7.4 °F 12.9 °F 88% 30.05 in 7.0 mi WSW 5.8 mph - N/A   Clear
7:52 AM 17.1 °F 6.6 °F 14.0 °F 88% 30.05 in 8.0 mi West 8.1 mph - N/A   Scattered Clouds
8:52 AM 19.9 °F 11.1 °F 15.1 °F 81% 30.05 in 9.0 mi West 6.9 mph - N/A   Scattered Clouds
9:52 AM 23.0 °F 18.4 °F 17.1 °F 78% 30.04 in 10.0 mi WSW 3.5 mph - N/A   Clear
10:52 AM 24.1 °F 17.0 °F 17.1 °F 75% 30.04 in 10.0 mi SSW 5.8 mph - N/A   Partly Cloudy
11:52 AM 26.1 °F 18.4 °F 18.0 °F 71% 30.04 in 10.0 mi WSW 6.9 mph - N/A   Partly Cloudy
12:52 PM 27.0 °F 18.0 °F 18.0 °F 69% 30.04 in 10.0 mi SW 9.2 mph - N/A   Clear
1:52 PM 28.0 °F 17.5 °F 19.9 °F 72% 30.02 in 10.0 mi West 12.7 mph - N/A   Clear
2:52 PM 28.0 °F 18.6 °F 19.9 °F 72% 30.01 in 10.0 mi West 10.4 mph - N/A   Clear
3:52 PM 28.9 °F 19.8 °F 19.9 °F 69% 30.01 in 10.0 mi WSW 10.4 mph - N/A   Clear
4:52 PM 28.0 °F 18.6 °F 19.9 °F 72% 30.02 in 10.0 mi WSW 10.4 mph - N/A   Clear
5:52 PM 26.1 °F 17.6 °F 19.9 °F 78% 30.03 in 10.0 mi West 8.1 mph - N/A   Clear
6:52 PM 24.1 °F 17.0 °F 19.0 °F 81% 30.04 in 10.0 mi WSW 5.8 mph - N/A   Clear
7:52 PM 23.0 °F - 18.0 °F 81% 30.03 in 10.0 mi Calm Calm - N/A   Clear
8:52 PM 21.9 °F - 18.0 °F 85% 30.04 in 10.0 mi Calm Calm - N/A   Clear
9:52 PM 19.9 °F - 18.0 °F 92% 30.05 in 10.0 mi Calm Calm - N/A   Clear
10:52 PM 17.1 °F - 15.1 °F 92% 30.05 in 8.0 mi Calm Calm - N/A   Clear
11:52 PM 18.0 °F 12.7 °F 12.9 °F 81% 30.04 in 7.0 mi WSW 3.5 mph - N/A   Clear